Regional Weather Roundup
Issued by NWS

Home | Current Version | Previous Version | Graphics & Text | Print | Product List | Glossary On
Versions: 1 2 3 4 5 6 7 8 9 10 11 12 13 14 15 16 17 18 19 20 21 22 23 24 25 26 27 28 29 30 31 32 33 34 35 36 37 38 39 40 41 42 43 44 45 46 47 48 49 50
000
ASUS43 KLMK 200202
RWRKY
KENTUCKY REGIONAL WEATHER ROUNDUP
NATIONAL WEATHER SERVICE LOUISVILLE KY
1000 PM EDT FRI SEP 19 2014

NOTE "FAIR" INDICATES FEW OR NO CLOUDS BELOW 12,000 FEET
WITH NO SIGNIFICANT WEATHER AND/OR OBSTRUCTIONS TO VISIBILITY.

KYZ001>023-026-027-061>063-070>075-200300-
WESTERN AND SOUTH CENTRAL KENTUCKY

CITY           SKY/WX    TMP DP  RH WIND       PRES   REMARKS
PADUCAH        CLEAR     67  61  81 CALM      30.01S
HENDERSON      CLEAR     61  54  77 CALM      30.03S
OWENSBORO      CLEAR     69  59  70 CALM      30.04S
HOPKINSVILLE   MOCLDY    71  64  77 CALM      30.04R
BOWLING GREEN  CLEAR     68  61  78 CALM      30.05R
GLASGOW        CLEAR     64  59  84 E3        30.07R
$$

KYZ024-025-028>034-038-045-046-053-200300-
NORTH CENTRAL KENTUCKY

CITY           SKY/WX    TMP DP  RH WIND       PRES   REMARKS
LOUISVILLE/SDF MOCLDY    70  56  61 E3        30.06F
LOUISVILLE/LOU CLEAR     68  56  65 CALM      30.07S
FORT KNOX      CLEAR     65  58  79 NE2       30.06S
$$

KYZ035>037-039>044-047>052-055>060-089>105-200300-
NORTHEAST KENTUCKY

CITY           SKY/WX    TMP DP  RH WIND       PRES   REMARKS
LEXINGTON      CLEAR     64  58  80 CALM      30.10R
COVINGTON      PTCLDY    62  51  67 CALM      30.09S
FRANKFORT      CLEAR     61  56  83 CALM      30.08S
$$

KYZ054-064>069-076>088-106>120-200300-
SOUTHEAST KENTUCKY

CITY           SKY/WX    TMP DP  RH WIND       PRES   REMARKS
JACKSON        CLEAR     68  62  81 CALM      30.12R
LONDON         CLEAR     65  60  84 CALM      30.12R
SOMERSET       CLEAR     64  63  94 CALM      30.10S
MIDDLESBORO    CLOUDY    65  61  86 CALM      30.14R
MONTICELLO     CLEAR     62  60  93 CALM      30.11R
$$




USA.gov is the U.S. government's official web portal to all federal, state and local government web resources and services.